SQ9RHX-13 Weather Reports


Display with metric or nautical units.
time (UTC)temp
F
wind
direction
speed
MPH
gust
MPH
rain 1hr
in
rain 24hr
in
rain mn
in
humidity
%
barometer
mb
20260905160507 69 324 2.0 8.0 0.00 0.00 0.19 49 1020.7
20260905160006 69 11 1.0 5.0 0.00 0.00 0.19 50 1020.7
20260905155506 69 328 4.0 5.0 0.00 0.00 0.19 49 1020.9
20260905155006 69 32 1.0 5.0 0.00 0.00 0.19 49 1020.7
20260905154506 70 35 2.0 7.0 0.00 0.00 0.19 49 1020.4
20260905154008 70 33 1.0 6.0 0.00 0.00 0.19 48 1020.6
20260905153506 71 19 2.0 2.0 0.00 0.00 0.19 47 1020.6
20260905153005 71 220 2.0 6.0 0.00 0.00 0.19 46 1020.4
20260905152506 71 162 3.0 8.0 0.00 0.00 0.19 46 1020.6
20260905152006 70 219 3.0 8.0 0.00 0.00 0.19 49 1020.5
20260905151506 70 71 1.0 6.0 0.00 0.00 0.19 48 1020.4
20260905151006 70 230 3.0 5.0 0.00 0.00 0.19 47 1020.7
20260905150505 70 182 1.0 3.0 0.00 0.00 0.19 48 1020.5
20260905150007 70 265 3.0 8.0 0.00 0.00 0.19 46 1020.4
20260905145507 70 151 3.0 7.0 0.00 0.00 0.19 46 1020.7
20260905145006 71 270 4.0 10.0 0.00 0.00 0.19 46 1020.3
20260905144507 71 281 1.0 5.0 0.00 0.00 0.19 48 1020.2
20260905144006 71 60 0.0 3.0 0.00 0.00 0.19 49 1020.4
20260905143507 70 308 3.0 6.0 0.00 0.00 0.19 47 1020.5
20260905143006 71 289 4.0 7.0 0.00 0.00 0.19 47 1020.5
20260905142506 73 271 2.0 8.0 0.00 0.00 0.19 44 1020.3
20260905142006 73 114 2.0 7.0 0.00 0.00 0.19 43 1020.2
20260905141506 73 7 1.0 6.0 0.00 0.00 0.19 44 1020.4
20260905141005 73 305 4.0 7.0 0.00 0.00 0.19 44 1020.4
20260905140506 74 346 4.0 7.0 0.00 0.00 0.19 44 1020.3
20260905140005 74 227 3.0 8.0 0.00 0.00 0.19 44 1020.3
20260905135506 73 291 2.0 6.0 0.00 0.00 0.19 45 1020.3
20260905135008 73 111 2.0 6.0 0.00 0.00 0.19 48 1020.2
20260905134506 72 198 6.0 8.0 0.00 0.00 0.19 47 1020.3
20260905134005 72 303 2.0 5.0 0.00 0.00 0.19 50 1020.3
20260905133506 72 353 4.0 9.0 0.00 0.00 0.19 46 1020.4
20260905133006 72 353 2.0 9.0 0.00 0.00 0.19 47 1020.4
20260905132507 71 260 3.0 9.0 0.00 0.00 0.19 48 1020.2
20260905132006 72 296 3.0 7.0 0.00 0.00 0.19 47 1020.5
20260905131507 73 48 1.0 3.0 0.00 0.00 0.19 47 1020.4
20260905131006 73 306 3.0 6.0 0.00 0.00 0.19 47 1020.3
20260905130507 73 304 3.0 7.0 0.00 0.00 0.19 45 1020.3
20260905130007 73 338 2.0 6.0 0.00 0.00 0.19 46 1020.4
20260905125507 74 28 3.0 6.0 0.00 0.00 0.19 45 1020.3
20260905125006 74 354 2.0 6.0 0.00 0.00 0.19 48 1020.2
20260905124506 74 186 3.0 8.0 0.00 0.00 0.19 46 1020.2
20260905124006 73 312 4.0 7.0 0.00 0.00 0.19 48 1020.4
20260905123506 73 160 3.0 7.0 0.00 0.00 0.19 49 1020.3
20260905123007 72 289 4.0 6.0 0.00 0.00 0.19 50 1020.4
20260905122507 72 216 4.0 8.0 0.00 0.00 0.19 49 1020.7
20260905122006 72 293 1.0 6.0 0.00 0.00 0.19 52 1020.7
20260905121506 72 180 1.0 6.0 0.00 0.00 0.19 51 1020.7
20260905121006 71 246 2.0 5.0 0.00 0.00 0.19 53 1020.8
20260905120507 71 3 2.0 7.0 0.00 0.00 0.19 53 1020.8
20260905120007 71 350 4.0 7.0 0.00 0.00 0.19 52 1021.0
20260905115507 70 291 1.0 8.0 0.00 0.00 0.19 54 1021.1
20260905115006 69 286 3.0 8.0 0.00 0.00 0.19 55 1020.9
20260905114505 70 291 6.0 13.0 0.00 0.00 0.19 52 1021.0
20260905114006 70 324 2.0 6.0 0.00 0.00 0.19 52 1020.9
20260905113507 70 321 2.0 6.0 0.00 0.00 0.19 56 1021.0
20260905113005 71 281 8.0 11.0 0.00 0.00 0.19 51 1021.2
20260905112506 71 198 4.0 8.0 0.00 0.00 0.19 53 1020.9
20260905112006 70 192 2.0 5.0 0.00 0.00 0.19 56 1021.0
20260905111507 71 110 2.0 5.0 0.00 0.00 0.19 54 1021.0
20260905111006 72 168 2.0 11.0 0.00 0.00 0.19 54 1020.9
20260905110505 72 260 3.0 9.0 0.00 0.00 0.19 55 1020.8
20260905110006 71 186 5.0 10.0 0.00 0.00 0.19 53 1020.8
20260905105505 70 227 2.0 7.0 0.00 0.00 0.19 57 1020.8
20260905105007 69 155 3.0 6.0 0.00 0.00 0.19 59 1020.7
20260905104507 70 210 2.0 6.0 0.00 0.00 0.19 56 1020.9
20260905104006 71 347 2.0 6.0 0.00 0.00 0.19 55 1020.8
20260905103507 71 154 5.0 8.0 0.00 0.00 0.19 54 1020.7
20260905103006 70 196 3.0 6.0 0.00 0.00 0.19 59 1020.7
20260905102507 70 177 1.0 7.0 0.00 0.00 0.19 56 1020.5
20260905102007 70 262 6.0 9.0 0.00 0.00 0.19 55 1020.9
20260905101506 70 335 2.0 5.0 0.00 0.00 0.19 57 1020.5
20260905101008 70 11 3.0 6.0 0.00 0.00 0.19 59 1020.8
20260905100505 69 5 2.0 6.0 0.00 0.00 0.19 60 1020.7
20260905100006 69 19 2.0 7.0 0.00 0.00 0.19 58 1020.6
20260905095506 69 339 4.0 10.0 0.00 0.00 0.19 56 1020.8
20260905095008 69 291 2.0 6.0 0.00 0.00 0.19 59 1020.6
20260905094505 68 353 3.0 6.0 0.00 0.00 0.19 61 1020.3
20260905094007 67 176 2.0 10.0 0.00 0.00 0.19 63 1020.8
20260905093506 68 324 3.0 8.0 0.00 0.00 0.19 61 1020.6
20260905093007 68 281 5.0 8.0 0.00 0.00 0.19 62 1020.7
20260905092506 68 317 2.0 6.0 0.00 0.00 0.19 63 1020.7
20260905092007 68 284 1.0 7.0 0.00 0.00 0.19 63 1020.6
20260905091507 68 293 3.0 7.0 0.00 0.00 0.19 61 1020.5
20260905091006 66 175 3.0 6.0 0.00 0.00 0.19 65 1020.8
20260905090506 66 102 1.0 8.0 0.00 0.00 0.19 65 1020.7
20260905090006 67 70 1.0 5.0 0.00 0.00 0.19 64 1020.6
20260905085507 68 13 2.0 2.0 0.00 0.00 0.19 62 1020.8
20260905085005 68 307 3.0 8.0 0.00 0.00 0.19 62 1020.6
20260905084507 68 253 4.0 8.0 0.00 0.00 0.19 62 1020.5
20260905084006 67 341 1.0 5.0 0.00 0.00 0.19 66 1020.6
20260905083505 67 309 2.0 6.0 0.00 0.00 0.19 66 1020.7
20260905083006 67 312 6.0 11.0 0.00 0.00 0.19 65 1020.7
20260905082506 66 178 4.0 9.0 0.00 0.00 0.19 67 1020.5
20260905082007 66 73 2.0 8.0 0.00 0.00 0.19 68 1020.3
20260905081507 64 289 2.0 3.0 0.00 0.00 0.19 72 1020.2
20260905081006 64 25 2.0 6.0 0.00 0.00 0.19 70 1020.4
20260905080507 64 262 2.0 6.0 0.00 0.00 0.19 70 1020.3
20260905080006 63 21 2.0 5.0 0.00 0.00 0.19 73 1020.3
20260905075505 64 302 1.0 3.0 0.00 0.00 0.19 73 1020.2
20260905075007 65 288 2.0 7.0 0.00 0.00 0.19 71 1020.2
20260905074506 65 289 3.0 5.0 0.00 0.00 0.19 71 1020.0
20260905074007 64 253 2.0 3.0 0.00 0.00 0.19 72 1020.1
20260905073506 65 261 3.0 7.0 0.00 0.00 0.19 71 1020.1
20260905073006 65 296 2.0 7.0 0.00 0.00 0.19 73 1019.9
20260905072506 64 351 2.0 5.0 0.00 0.00 0.19 75 1020.0
20260905072006 64 331 1.0 2.0 0.00 0.00 0.19 76 1019.7
20260905071505 64 253 3.0 11.0 0.00 0.00 0.19 75 1019.8
20260905071007 63 45 1.0 5.0 0.00 0.00 0.19 77 1019.7
20260905070507 63 285 5.0 8.0 0.00 0.00 0.19 77 1019.7
20260905070006 63 164 3.0 5.0 0.00 0.00 0.19 79 1019.8
20260905065507 62 263 2.0 3.0 0.00 0.00 0.19 81 1019.8
20260905065006 63 36 1.0 6.0 0.00 0.00 0.19 81 1019.7
20260905064511 63 265 4.0 7.0 0.00 0.00 0.19 81 1019.6
20260905064007 62 220 3.0 5.0 0.00 0.00 0.19 83 1019.8
20260905063505 62 128 3.0 5.0 0.00 0.00 0.19 84 1019.5
20260905063007 62 27 1.0 11.0 0.00 0.00 0.19 85 1019.4
20260905062506 62 74 0.0 5.0 0.01 0.00 0.19 86 1019.2
20260905062006 62 335 1.0 6.0 0.03 0.00 0.19 88 1019.3
20260905061506 62 343 3.0 5.0 0.08 0.00 0.19 88 1019.3
20260905061007 61 169 1.0 3.0 0.09 0.00 0.19 89 1019.4
20260905060506 61 31 1.0 3.0 0.09 0.00 0.19 91 1019.2
20260905060006 61 13 1.0 2.0 0.09 0.00 0.19 92 1019.4
20260905055507 60 299 2.0 2.0 0.09 0.00 0.19 93 1019.3
20260905055007 59 24 1.0 2.0 0.09 0.00 0.19 93 1019.3
20260905054506 59 31 1.0 3.0 0.09 0.00 0.19 92 1019.2
20260905054005 59 117 0.0 3.0 0.09 0.00 0.19 92 1019.0
20260905053506 59 351 0.0 3.0 0.09 0.00 0.19 91 1019.0
20260905053007 59 81 1.0 5.0 0.09 0.00 0.19 91 1019.0
20260905052507 60 33 1.0 5.0 0.06 0.00 0.16 89 1018.9
20260905052006 60 45 0.0 5.0 0.03 0.00 0.13 88 1018.8
20260905051506 60 19 1.0 3.0 0.00 0.00 0.10 88 1018.8
20260905051006 59 47 0.0 1.0 0.00 0.00 0.10 89 1018.8
20260905050506 59 244 1.0 3.0 0.00 0.00 0.10 89 1018.8
20260905050007 59 252 2.0 3.0 0.00 0.00 0.10 89 1018.7
20260905045505 59 36 0.0 3.0 0.00 0.00 0.10 89 1018.6
20260905045005 60 42 0.0 2.0 0.00 0.00 0.10 89 1018.7
20260905044506 60 58 0.0 3.0 0.00 0.00 0.10 89 1018.4
20260905044006 60 93 0.0 3.0 0.00 0.00 0.10 89 1018.5
20260905043506 60 174 1.0 2.0 0.00 0.00 0.10 89 1018.5
20260905043007 60 39 0.0 2.0 0.00 0.00 0.10 89 1018.4
20260905042505 60 49 0.0 1.0 0.00 0.00 0.10 89 1018.3
20260905042006 60 296 0.0 3.0 0.00 0.00 0.10 89 1018.4
20260905041505 60 89 0.0 1.0 0.00 0.00 0.10 89 1018.2
20260905041006 60 57 0.0 2.0 0.00 0.00 0.10 88 1018.3
20260905040506 60 88 1.0 5.0 0.00 0.00 0.10 89 1018.0
20260905040005 60 75 0.0 1.0 0.00 0.00 0.10 89 1018.0
20260905035506 60 357 1.0 2.0 0.00 0.00 0.10 89 1017.9
20260905035006 60 17 0.0 3.0 0.00 0.00 0.10 89 1017.8
20260905034506 60 20 1.0 5.0 0.00 0.00 0.10 88 1018.0
20260905034007 60 48 0.0 3.0 0.00 0.00 0.10 89 1018.0
20260905033506 60 193 3.0 5.0 0.00 0.00 0.10 89 1017.9
20260905033007 60 87 1.0 3.0 0.00 0.00 0.10 89 1018.0
20260905032506 60 188 1.0 5.0 0.00 0.00 0.10 89 1017.7
20260905032007 60 63 1.0 7.0 0.00 0.00 0.10 89 1017.8
20260905031506 60 154 2.0 2.0 0.00 0.00 0.10 89 1017.5
20260905031005 60 45 1.0 1.0 0.00 0.00 0.10 89 1017.4
20260905030506 60 165 1.0 1.0 0.00 0.00 0.10 90 1017.4
20260905030007 60 286 1.0 2.0 0.00 0.00 0.10 90 1017.3
20260905025505 60 8 0.0 2.0 0.00 0.00 0.10 90 1017.4
20260905025006 60 338 1.0 3.0 0.00 0.00 0.10 90 1017.3
20260905024506 60 275 3.0 6.0 0.00 0.00 0.10 90 1017.1
20260905024006 60 29 0.0 1.0 0.00 0.00 0.10 91 1017.1
20260905023506 60 78 1.0 7.0 0.00 0.00 0.10 91 1017.2
20260905023005 60 280 1.0 5.0 0.00 0.00 0.10 91 1016.8
20260905022506 60 316 3.0 5.0 0.00 0.00 0.10 91 1016.8
20260905022007 60 44 1.0 1.0 0.00 0.00 0.10 91 1016.7
20260905021506 60 15 0.0 2.0 0.00 0.00 0.10 92 1016.7
20260905021007 60 91 0.0 2.0 0.00 0.00 0.10 92 1016.9
20260905020506 60 257 1.0 1.0 0.00 0.00 0.10 91 1016.5
20260905020007 60 27 0.0 1.0 0.00 0.00 0.10 91 1016.3
20260905015506 60 143 1.0 5.0 0.00 0.00 0.10 91 1016.3
20260905015006 60 28 1.0 3.0 0.00 0.00 0.10 91 1016.2
20260905014506 60 141 1.0 3.0 0.00 0.00 0.10 92 1016.1
20260905014006 60 50 0.0 2.0 0.00 0.00 0.10 92 1016.7
20260905013506 60 81 0.0 1.0 0.00 0.00 0.10 92 1017.0
20260905013006 60 187 2.0 3.0 0.00 0.00 0.10 92 1016.9
20260905012506 60 26 1.0 2.0 0.00 0.00 0.10 92 1016.6
20260905012005 60 168 2.0 3.0 0.00 0.00 0.10 92 1016.4
20260905011505 61 272 0.0 2.0 0.00 0.00 0.10 92 1016.1
20260905011006 61 16 1.0 3.0 0.00 0.00 0.10 92 1016.4
20260905010506 61 88 0.0 3.0 0.00 0.00 0.10 93 1016.1
20260905010008 61 170 1.0 3.0 0.00 0.00 0.10 93 1015.7
20260905005505 61 261 3.0 6.0 0.00 0.00 0.10 93 1016.3
20260905005006 61 81 0.0 2.0 0.00 0.00 0.10 93 1016.2
20260905004507 61 155 1.0 2.0 0.00 0.00 0.10 93 1016.2
20260905004006 61 78 0.0 2.0 0.01 0.00 0.10 93 1016.7
20260905003507 61 38 1.0 2.0 0.01 0.00 0.10 93 1016.7
20260905003006 61 335 2.0 5.0 0.01 0.00 0.10 93 1016.6
20260905002506 61 26 0.0 5.0 0.01 0.00 0.10 93 1016.4
20260905002007 61 284 2.0 3.0 0.01 0.00 0.10 93 1016.2
20260905001506 61 297 0.0 6.0 0.01 0.00 0.10 93 1015.8
20260905001006 61 65 0.0 2.0 0.01 0.00 0.10 93 1016.0
20260905000507 61 295 1.0 3.0 0.02 0.00 0.10 93 1016.3
20260905000005 61 63 1.0 2.0 0.03 0.00 0.10 93 1016.2
20260904235506 61 225 3.0 5.0 0.03 0.00 0.10 93 1015.8
20260904235006 61 56 0.0 2.0 0.04 0.00 0.10 93 1015.7
20260904234506 61 271 3.0 3.0 0.04 0.00 0.10 93 1015.6
20260904234007 61 195 1.0 1.0 0.03 0.00 0.09 93 1016.0
20260904233506 61 45 1.0 3.0 0.04 0.00 0.09 93 1016.1
20260904233006 61 206 3.0 6.0 0.04 0.00 0.09 93 1016.0
20260904232507 61 33 1.0 5.0 0.04 0.00 0.09 93 1015.7
20260904232006 61 51 1.0 6.0 0.05 0.00 0.09 93 1015.4
20260904231506 61 222 2.0 3.0 0.06 0.00 0.09 93 1015.3
20260904231005 61 232 5.0 6.0 0.06 0.00 0.08 93 1015.5
20260904230506 61 154 2.0 7.0 0.07 0.00 0.08 93 1015.7
20260904230007 61 277 1.0 5.0 0.07 0.00 0.07 93 1015.5
20260904225507 61 5 2.0 6.0 0.06 0.00 0.06 93 1015.4
20260904225007 61 1 1.0 5.0 0.06 0.00 0.06 93 1015.3
20260904224506 61 40 1.0 3.0 0.07 0.00 0.06 93 1014.7
20260904224007 61 11 1.0 5.0 0.07 0.00 0.06 93 1015.2
20260904223506 61 96 1.0 3.0 0.07 0.00 0.05 93 1015.2
20260904223006 61 26 0.0 2.0 0.08 0.00 0.05 93 1015.0
20260904222505 61 211 2.0 5.0 0.07 0.00 0.04 93 1015.5
20260904222006 61 161 2.0 3.0 0.08 0.00 0.04 92 1015.0
20260904221506 61 295 1.0 3.0 0.07 0.00 0.03 92 1015.3
20260904221006 61 200 1.0 5.0 0.05 0.00 0.01 92 1015.3
20260904220506 61 189 1.0 3.0 0.05 0.00 0.00 92 1014.8
20260904220006 61 56 1.0 2.0 0.05 0.00 0.20 92 1014.9
20260904215507 61 32 1.0 3.0 0.06 0.00 0.20 92 1014.6
20260904215005 61 181 2.0 2.0 0.09 0.00 0.20 92 1014.8
20260904214506 61 211 2.0 5.0 0.08 0.00 0.19 92 1014.9
20260904214005 61 299 2.0 6.0 0.09 0.00 0.19 92 1015.2
20260904213506 61 6 1.0 2.0 0.08 0.00 0.18 92 1015.1
20260904213007 61 289 2.0 3.0 0.07 0.00 0.17 91 1015.1
20260904212505 61 0 1.0 2.0 0.09 0.00 0.17 91 1015.0
20260904212006 61 64 0.0 1.0 0.09 0.00 0.16 91 1015.0
20260904211508 61 296 0.0 1.0 0.09 0.00 0.16 91 1014.8
20260904211007 61 39 0.0 2.0 0.09 0.00 0.16 90 1014.7
20260904210506 61 27 1.0 5.0 0.08 0.00 0.15 90 1015.1
20260904210006 62 359 2.0 3.0 0.08 0.00 0.15 89 1015.3
20260904205507 62 307 2.0 5.0 0.05 0.00 0.12 88 1015.3
20260904205005 62 348 1.0 3.0 0.04 0.00 0.11 88 1015.2
20260904204506 62 327 3.0 6.0 0.04 0.00 0.11 87 1014.9
20260904204007 62 281 2.0 3.0 0.03 0.00 0.10 87 1015.0
20260904203506 63 269 3.0 5.0 0.04 0.00 0.10 86 1015.2
20260904203005 63 128 1.0 5.0 0.08 0.00 0.09 84 1015.3
20260904202505 63 33 1.0 3.0 0.06 0.00 0.07 84 1015.4
20260904202008 63 321 1.0 5.0 0.06 0.00 0.07 83 1014.8
20260904201506 63 21 3.0 5.0 0.06 0.00 0.07 85 1014.7
20260904201006 63 334 1.0 2.0 0.06 0.00 0.07 85 1014.6
20260904200505 63 48 1.0 3.0 0.06 0.00 0.07 84 1014.7
20260904200007 64 173 1.0 3.0 0.07 0.00 0.07 84 1014.8
20260904195505 64 345 0.0 5.0 0.07 0.00 0.07 84 1015.0
20260904195005 65 343 1.0 2.0 0.07 0.00 0.07 83 1015.1
20260904194506 66 218 2.0 3.0 0.07 0.00 0.07 81 1015.2
20260904194005 67 329 3.0 5.0 0.07 0.00 0.07 78 1014.8
20260904193505 70 254 4.0 7.0 0.03 0.00 0.03 71 1015.0
20260904193006 70 351 1.0 3.0 0.01 0.00 0.01 69 1014.1
20260904192507 69 286 3.0 7.0 0.01 0.00 0.01 71 1013.8
20260904192006 69 335 2.0 3.0 0.01 0.00 0.01 70 1013.7
20260904191506 70 12 4.0 8.0 0.01 0.00 0.01 70 1013.5
20260904191008 71 305 3.0 6.0 0.01 0.00 0.01 72 1013.6
20260904190507 73 243 4.0 7.0 0.01 0.00 0.01 67 1013.1
20260904190006 73 302 2.0 5.0 0.00 0.00 0.00 70 1013.6
20260904185506 73 21 1.0 2.0 0.00 0.00 0.00 70 1013.4
20260904185006 74 60 1.0 3.0 0.00 0.00 0.00 70 1013.1
20260904184507 75 341 2.0 8.0 0.00 0.00 0.00 70 1013.3
20260904184006 76 15 1.0 7.0 0.00 0.00 0.00 66 1013.0
20260904183507 77 319 1.0 5.0 0.00 0.00 0.00 65 1012.3
20260904183006 77 344 1.0 6.0 0.00 0.00 0.00 60 1011.5
20260904182507 77 190 2.0 6.0 0.00 0.00 0.00 60 1011.2
20260904182006 77 150 1.0 6.0 0.00 0.00 0.00 60 1011.0
20260904181506 77 85 2.0 6.0 0.00 0.00 0.00 60 1011.2
20260904181006 77 168 2.0 8.0 0.00 0.00 0.00 60 1011.0
20260904180506 77 144 3.0 7.0 0.00 0.00 0.00 60 1011.0
20260904180006 77 145 2.0 8.0 0.00 0.00 0.00 60 1010.9
20260904175506 77 166 5.0 6.0 0.00 0.00 0.00 60 1010.8
20260904175006 77 159 1.0 8.0 0.00 0.00 0.00 60 1010.9
20260904174507 77 190 2.0 6.0 0.00 0.00 0.00 61 1010.9
20260904174005 77 183 3.0 9.0 0.00 0.00 0.00 61 1010.9
20260904173507 77 173 3.0 5.0 0.00 0.00 0.00 61 1010.9
20260904173006 77 168 2.0 8.0 0.00 0.00 0.00 61 1011.1
20260904172506 77 194 4.0 8.0 0.00 0.00 0.00 61 1011.3
20260904172005 77 177 5.0 7.0 0.00 0.00 0.00 61 1011.5
20260904171506 77 102 1.0 5.0 0.00 0.00 0.00 61 1011.6
20260904171005 77 314 4.0 8.0 0.00 0.00 0.00 61 1011.7
20260904170506 77 130 1.0 11.0 0.00 0.00 0.00 61 1011.5
20260904170007 78 151 1.0 2.0 0.00 0.00 0.00 61 1011.8
20260904165505 78 96 4.0 6.0 0.00 0.00 0.00 61 1011.8
20260904165007 78 12 0.0 6.0 0.00 0.00 0.00 61 1011.8
20260904164506 78 176 5.0 6.0 0.00 0.00 0.00 61 1011.7
20260904164007 78 123 1.0 5.0 0.00 0.00 0.00 61 1011.7
20260904163509 78 176 1.0 3.0 0.00 0.00 0.00 61 1011.9
20260904163006 78 296 1.0 6.0 0.00 0.00 0.00 61 1012.1
20260904162506 78 227 3.0 6.0 0.00 0.00 0.00 60 1012.0
20260904162008 78 192 3.0 5.0 0.00 0.00 0.00 61 1012.0
20260904161507 78 246 5.0 7.0 0.00 0.00 0.00 61 1012.0
20260904161007 78 278 2.0 5.0 0.00 0.00 0.00 61 1012.1